Willimantic, CT

11:28 PM EDT on October 23, 2019 (GMT -0400)
Windham

Weather History for KIJD - September, 2019

Change the Weather History Date:

Tuesday, September 17, 2019

  Actual Average Record
Temperature  
Mean Temperature 58 °F -  
Max Temperature 73 °F 72 °F 88 °F (1991)
Min Temperature 45 °F 46 °F 30 °F (1960)
Degree Days  
Heating Degree Days 6    
Growing Degree Days 8 (Base 50)    
Moisture  
Dew Point 48 °F    
Average Humidity 74    
Maximum Humidity 97    
Minimum Humidity 40    
Precipitation  
Precipitation 0.00 in - - ()
Sea Level Pressure  
Sea Level Pressure 30.14 in    
Wind  
Wind Speed 3 mph ()    
Max Wind Speed 14 mph    
Max Gust Speed 21 mph    
Visibility 10.0 miles    
Events      
Averages and records for this station are not official NWS values.
T = Trace of Precipitation, MM = Missing Value Source: Averaged Metar Reports

Daily Weather History Graph

Daily Weather History Graph

Search for Another Location

Airport or City:

Astronomy

Sep. 17, 2019 Rise Set
Actual Time 6:30 AM EDT 6:55 PM EDT
Civil Twilight 6:02 AM EDT 7:22 PM EDT
Nautical Twilight 5:30 AM EDT 7:55 PM EDT
Astronomical Twilight 4:56 AM EDT 8:29 PM EDT
Moon 8:54 PM EDT (9/17) 9:34 AM EDT (9/17)
Length of Visible Light 13h 20m
Length of Day
12h 24m
Waning Gibbous, 89% of the Moon is Illuminated
Sep 17
Waning Gibbous
Sep 21
Last Quarter
Sep 28
New
Oct 5
First Quarter
Oct 13
Full

Hourly Weather History & Observations

Time (EDT) Temp. Dew Point Humidity Pressure Visibility Wind Dir Wind Speed Gust Speed Precip Events Conditions
12:52 AM 51.1 °F 48.9 °F 92% 30.11 in 10.0 mi North 3.5 mph - N/A   Clear
1:52 AM 51.1 °F 48.0 °F 89% 30.11 in 10.0 mi Calm Calm - N/A   Clear
2:52 AM 48.9 °F 46.9 °F 93% 30.11 in 10.0 mi Calm Calm - N/A   Clear
3:52 AM 48.0 °F 46.0 °F 93% 30.10 in 10.0 mi Calm Calm - N/A   Clear
4:52 AM 46.0 °F 45.0 °F 96% 30.10 in 10.0 mi Calm Calm - N/A   Clear
5:03 AM 46.9 °F 45.0 °F 93% 30.10 in 10.0 mi Calm Calm - N/A   Partly Cloudy
5:52 AM 46.0 °F 44.1 °F 93% 30.12 in 10.0 mi Calm Calm - N/A   Clear
6:26 AM 46.0 °F 45.0 °F 96% 30.12 in 10.0 mi Calm Calm - N/A   Partly Cloudy
6:52 AM 45.0 °F 44.1 °F 97% 30.13 in 10.0 mi Calm Calm - N/A   Clear
7:52 AM 48.9 °F 46.9 °F 93% 30.15 in 10.0 mi Calm Calm - N/A   Clear
8:52 AM 55.0 °F 50.0 °F 83% 30.15 in 10.0 mi Calm Calm - N/A   Clear
9:52 AM 66.0 °F 48.9 °F 54% 30.15 in 10.0 mi NNE 11.5 mph - N/A   Clear
10:52 AM 68.0 °F 46.0 °F 45% 30.16 in 10.0 mi NNE 13.8 mph 20.7 mph N/A   Clear
11:52 AM 70.0 °F 46.0 °F 42% 30.15 in 10.0 mi NNE 13.8 mph - N/A   Clear
12:52 PM 69.1 °F 46.0 °F 44% 30.14 in 10.0 mi Variable 4.6 mph - N/A   Clear
1:52 PM 70.0 °F 46.9 °F 44% 30.13 in 10.0 mi NNE 10.4 mph 18.4 mph N/A   Scattered Clouds
2:52 PM 72.0 °F 46.0 °F 40% 30.12 in 10.0 mi North 11.5 mph 17.3 mph N/A   Partly Cloudy
3:52 PM 72.0 °F 46.0 °F 40% 30.12 in 10.0 mi NE 10.4 mph - N/A   Overcast
4:52 PM 69.1 °F 48.0 °F 47% 30.12 in 10.0 mi ENE 6.9 mph - N/A   Mostly Cloudy
5:52 PM 70.0 °F 48.0 °F 46% 30.14 in 10.0 mi North 4.6 mph - N/A   Scattered Clouds
6:52 PM 64.9 °F 51.1 °F 61% 30.15 in 10.0 mi East 3.5 mph - N/A   Partly Cloudy
7:52 PM 59.0 °F 53.1 °F 81% 30.17 in 10.0 mi NE 3.5 mph - N/A   Clear
8:52 PM 55.9 °F 53.1 °F 90% 30.17 in 10.0 mi North 3.5 mph - N/A   Clear
9:52 PM 55.0 °F 52.0 °F 89% 30.19 in 10.0 mi NE 3.5 mph - N/A   Mostly Cloudy
10:52 PM 53.1 °F 51.1 °F 93% 30.20 in 10.0 mi Calm Calm - N/A   Clear
11:52 PM 52.0 °F 50.0 °F 93% 30.20 in 10.0 mi Calm Calm - N/A   Clear